N8HON Weather Reports


time (UTC)temp
C
wind
direction
speed
KPH
gust
KPH
rain 1hr
cm
rain 24hr
cm
rain mn
cm
humidity
%
barometer
mb
20260510065931 10 234 1.6 1.6 0.00 0.00 0.00 81 1011.1
20260510065428 10 292 4.8 4.8 0.00 0.00 0.00 81 1010.9
20260510064924 10 239 3.2 3.2 0.00 0.00 0.00 81 1011.0
20260510064422 10 227 0.0 1.6 0.00 0.00 0.00 81 1011.0
20260510063919 10 265 3.2 4.8 0.00 0.00 0.00 81 1011.1
20260510063414 10 252 3.2 3.2 0.00 0.00 0.00 81 1011.1
20260510062913 10 242 1.6 3.2 0.00 0.00 0.00 81 1011.0
20260510062407 10 249 3.2 3.2 0.00 0.00 0.00 81 1011.1
20260510061903 10 227 0.0 3.2 0.00 0.00 0.00 81 1011.0
20260510061400 10 277 0.0 3.2 0.00 0.00 0.00 80 1011.0
20260510060855 10 259 1.6 3.2 0.00 0.00 0.00 82 1011.0
20260510060353 10 233 0.0 3.2 0.00 0.00 0.00 82 1010.9
20260510055849 10 232 3.2 3.2 0.00 0.00 0.00 82 1010.9
20260510055349 10 236 1.6 3.2 0.00 0.00 0.00 81 1010.9
20260510054848 10 236 1.6 3.2 0.00 0.00 0.00 81 1011.0
20260510054344 10 221 1.6 1.6 0.00 0.00 0.00 81 1011.1
20260510053839 10 194 0.0 1.6 0.00 0.00 0.00 81 1011.0
20260510053334 10 220 0.0 1.6 0.00 0.00 0.00 80 1011.1
20260510052831 10 222 0.0 0.0 0.00 0.00 0.00 80 1011.1
20260510052327 10 222 0.0 0.0 0.00 0.00 0.00 80 1011.2
20260510051824 10 222 1.6 1.6 0.00 0.00 0.00 80 1011.4
20260510051320 10 221 1.6 3.2 0.00 0.00 0.00 79 1011.4
20260510050818 10 243 0.0 0.0 0.00 0.00 0.00 78 1011.4
20260510050314 10 243 0.0 0.0 0.00 0.00 0.00 77 1011.5
20260510045811 11 244 1.6 1.6 0.00 0.00 0.00 76 1011.3
20260510045308 11 111 1.6 3.2 0.00 0.00 0.00 75 1011.4
20260510044805 11 356 3.2 4.8 0.00 0.00 0.00 75 1011.4
20260510044302 11 276 1.6 3.2 0.00 0.00 0.00 75 1011.4
20260510043758 11 234 4.8 8.0 0.00 0.00 0.00 75 1011.3
20260510043254 11 247 1.6 4.8 0.00 0.00 0.00 75 1011.3
20260510042752 11 244 1.6 8.0 0.00 0.00 0.00 74 1011.2
20260510042247 11 260 1.6 3.2 0.00 0.00 0.00 74 1011.1
20260510041745 11 335 4.8 8.0 0.00 0.00 0.00 74 1011.1
20260510041242 11 283 3.2 4.8 0.00 0.00 0.00 74 1010.7
20260510040739 11 311 1.6 3.2 0.00 0.00 0.00 74 1011.0
20260510040236 11 266 3.2 4.8 0.00 0.00 0.00 75 1010.8
20260510035731 11 262 0.0 3.2 0.00 0.00 0.00 74 1010.9
20260510035227 11 358 4.8 4.8 0.00 0.00 0.00 74 1011.0
20260510034722 11 222 1.6 3.2 0.00 0.00 0.00 73 1011.4
20260510034221 11 297 4.8 4.8 0.00 0.00 0.00 74 1011.2
20260510033716 11 198 0.0 3.2 0.00 0.00 0.00 73 1011.2
20260510033215 11 285 3.2 3.2 0.00 0.00 0.00 74 1011.2
20260510032711 11 278 3.2 8.0 0.00 0.00 0.00 73 1011.1
20260510032207 11 193 0.0 1.6 0.00 0.00 0.00 73 1010.9
20260510031701 12 227 0.0 3.2 0.00 0.00 0.00 72 1011.0
20260510031158 12 221 1.6 3.2 0.00 0.00 0.00 71 1010.8
20260510030652 12 271 1.6 3.2 0.00 0.00 0.00 72 1010.9
20260510030150 12 254 1.6 4.8 0.00 0.00 0.00 72 1011.0
20260510025647 11 227 1.6 3.2 0.00 0.00 0.00 73 1010.9
20260510025144 11 207 0.0 3.2 0.00 0.00 0.00 73 1011.1
20260510024642 11 209 1.6 3.2 0.00 0.00 0.00 73 1011.1
20260510024138 11 195 1.6 3.2 0.00 0.00 0.00 74 1010.8
20260510023634 11 160 0.0 1.6 0.00 0.00 0.00 73 1011.0
20260510023132 12 179 0.0 0.0 0.00 0.00 0.00 71 1010.9
20260510022631 12 178 0.0 1.6 0.00 0.00 0.00 71 1010.9
20260510022126 12 108 0.0 1.6 0.00 0.00 0.00 70 1010.7
20260510021622 13 227 1.6 1.6 0.00 0.00 0.00 69 1010.7
20260510021120 13 199 1.6 3.2 0.00 0.00 0.00 67 1010.5
20260510020613 13 218 1.6 4.8 0.00 0.00 0.00 66 1010.6
20260510020109 13 204 0.0 3.2 0.00 0.00 0.00 66 1010.4
20260510015605 13 231 1.6 3.2 0.00 0.00 0.00 66 1010.2
20260510015102 13 193 0.0 3.2 0.00 0.00 0.00 64 1009.9
20260510014558 13 186 1.6 3.2 0.00 0.00 0.00 64 1010.2
20260510014056 14 217 0.0 1.6 0.00 0.00 0.00 64 1009.9
20260510013555 14 232 1.6 3.2 0.00 0.00 0.00 64 1009.9
20260510013052 15 253 1.6 3.2 0.00 0.00 0.00 62 1009.5
20260510012551 15 333 1.6 3.2 0.00 0.00 0.00 62 1009.7
20260510012048 15 252 1.6 3.2 0.00 0.00 0.00 61 1009.6
20260510011547 15 256 3.2 3.2 0.00 0.00 0.00 59 1009.6
20260510011043 15 269 1.6 4.8 0.00 0.00 0.00 60 1009.5
20260510010540 15 275 3.2 3.2 0.00 0.00 0.00 60 1009.5
20260510010037 15 237 1.6 3.2 0.00 0.00 0.00 59 1009.5
20260510005533 15 224 0.0 1.6 0.00 0.00 0.00 60 1009.4
20260510005031 15 235 0.0 1.6 0.00 0.00 0.00 59 1009.3
20260510004528 15 309 3.2 3.2 0.00 0.00 0.00 59 1009.3
20260510004026 15 257 0.0 0.0 0.00 0.00 0.00 60 1009.0
20260510003523 15 210 0.0 0.0 0.00 0.00 0.00 60 1009.1
20260510003018 15 210 0.0 0.0 0.00 0.00 0.00 60 1009.0
20260510002514 15 254 1.6 1.6 0.00 0.00 0.00 59 1008.9
20260510002011 15 199 0.0 0.0 0.00 0.00 0.00 58 1008.8
20260510001508 15 193 0.0 0.0 0.00 0.00 0.00 57 1008.5
20260510001006 15 122 0.0 0.0 0.00 0.00 0.00 58 1008.5
20260510000501 16 125 0.0 0.0 0.00 0.00 0.00 57 1008.4
20260509235958 16 206 0.0 0.0 0.00 0.00 0.00 58 1008.3
20260509235455 16 195 0.0 3.2 0.00 0.00 0.00 56 1008.3
20260509234951 16 177 0.0 3.2 0.00 0.00 0.00 55 1008.4
20260509234448 16 225 0.0 1.6 0.00 0.00 0.00 56 1008.2
20260509233946 17 165 0.0 4.8 0.00 0.00 0.00 54 1008.0
20260509233443 17 155 0.0 0.0 0.00 0.00 0.00 54 1008.2
20260509232939 17 169 0.0 1.6 0.00 0.00 0.00 52 1008.6
20260509232437 17 262 3.2 4.8 0.00 0.00 0.00 52 1008.5
20260509231932 17 275 3.2 3.2 0.00 0.00 0.00 54 1008.4
20260509231430 17 193 1.6 4.8 0.00 0.00 0.00 52 1008.4
20260509230928 18 173 0.0 1.6 0.00 0.00 0.00 51 1008.2
20260509230424 18 148 0.0 9.7 0.00 0.00 0.00 52 1008.6
20260509225920 18 135 1.6 1.6 0.00 0.00 0.00 50 1008.3
20260509225417 18 110 1.6 4.8 0.00 0.00 0.00 51 1008.6
20260509224913 18 118 4.8 4.8 0.00 0.00 0.00 50 1008.3
20260509224414 18 158 1.6 4.8 0.00 0.00 0.00 48 1008.4
20260509223911 19 97 3.2 3.2 0.00 0.00 0.00 48 1008.4
20260509223408 19 133 3.2 4.8 0.00 0.00 0.00 47 1008.2
20260509222905 20 109 3.2 9.7 0.00 0.00 0.00 47 1008.2
20260509222400 20 181 0.0 3.2 0.00 0.00 0.00 46 1008.2
20260509221855 20 124 1.6 3.2 0.00 0.00 0.00 47 1008.5
20260509221353 20 123 1.6 3.2 0.00 0.00 0.00 45 1008.5
20260509220849 20 338 3.2 4.8 0.00 0.00 0.00 47 1008.5
20260509220345 20 334 9.7 11.3 0.00 0.00 0.00 43 1008.2
20260509215840 20 291 4.8 8.0 0.00 0.00 0.00 45 1008.3
20260509215337 20 198 0.0 4.8 0.00 0.00 0.00 45 1008.2
20260509214834 20 124 1.6 8.0 0.00 0.00 0.00 47 1008.0
20260509214332 20 143 3.2 3.2 0.00 0.00 0.00 43 1008.0
20260509213829 20 59 3.2 4.8 0.00 0.00 0.00 45 1008.2
20260509213324 20 196 1.6 8.0 0.00 0.00 0.00 44 1008.0
20260509212822 21 155 0.0 1.6 0.00 0.00 0.00 43 1007.8
20260509212320 21 12 1.6 8.0 0.00 0.00 0.00 42 1007.7
20260509211815 21 104 1.6 3.2 0.00 0.00 0.00 42 1007.5
20260509211311 20 258 1.6 3.2 0.00 0.00 0.00 41 1007.9
20260509210808 20 91 1.6 1.6 0.00 0.00 0.00 43 1007.8
20260509210305 20 328 4.8 8.0 0.00 0.00 0.00 43 1007.5
20260509205804 20 124 0.0 4.8 0.00 0.00 0.00 44 1007.6
20260509205300 20 102 0.0 3.2 0.00 0.00 0.00 43 1007.6
20260509204756 20 162 0.0 3.2 0.00 0.00 0.00 43 1007.5
20260509204252 20 252 4.8 14.5 0.00 0.00 0.00 42 1007.5
20260509203748 20 178 0.0 8.0 0.00 0.00 0.00 41 1007.5
20260509203246 20 133 0.0 4.8 0.00 0.00 0.00 41 1007.3
20260509202742 21 139 0.0 4.8 0.00 0.00 0.00 40 1007.3
20260509202238 21 121 4.8 11.3 0.00 0.00 0.00 43 1007.2
20260509201733 21 13 4.8 8.0 0.00 0.00 0.00 40 1007.4
20260509201230 21 102 1.6 3.2 0.00 0.00 0.00 41 1007.4
20260509200726 21 323 4.8 4.8 0.00 0.00 0.00 44 1007.4
20260509200221 20 322 1.6 4.8 0.00 0.00 0.00 40 1007.2
20260509195717 21 43 3.2 17.7 0.00 0.00 0.00 40 1007.2
20260509195213 21 200 6.4 11.3 0.00 0.00 0.00 38 1007.3
20260509194712 22 130 6.4 12.9 0.00 0.00 0.00 38 1007.2
20260509194209 21 75 4.8 9.7 0.00 0.00 0.00 38 1007.3
20260509193706 20 155 8.0 9.7 0.00 0.00 0.00 45 1006.9
20260509193206 20 49 6.4 8.0 0.00 0.00 0.00 44 1007.3
20260509192703 20 52 1.6 8.0 0.00 0.00 0.00 44 1007.2
20260509192158 20 300 8.0 16.1 0.00 0.00 0.00 43 1007.3
20260509191653 20 300 4.8 4.8 0.00 0.00 0.00 45 1007.2
20260509191150 20 140 4.8 8.0 0.00 0.00 0.00 48 1007.5
20260509190646 20 116 1.6 4.8 0.00 0.00 0.00 46 1007.4
20260509190143 20 338 1.6 4.8 0.00 0.00 0.00 44 1007.5
20260509185641 20 143 1.6 11.3 0.00 0.00 0.00 47 1007.4
20260509185137 20 106 1.6 4.8 0.00 0.00 0.00 47 1007.6
20260509184635 20 138 3.2 14.5 0.00 0.00 0.00 46 1007.4
20260509184131 20 83 3.2 4.8 0.00 0.00 0.00 47 1007.8
20260509183628 20 165 0.0 14.5 0.00 0.00 0.00 50 1007.9
20260509183123 20 164 1.6 4.8 0.00 0.00 0.00 48 1007.8
20260509182619 21 134 8.0 12.9 0.00 0.00 0.00 46 1007.9
20260509182117 20 144 3.2 4.8 0.00 0.00 0.00 49 1008.0
20260509181615 20 100 1.6 3.2 0.00 0.00 0.00 48 1007.9
20260509181111 21 131 9.7 14.5 0.00 0.00 0.00 49 1007.8
20260509180608 19 82 4.8 8.0 0.00 0.00 0.00 54 1007.9
20260509180105 18 146 1.6 8.0 0.00 0.00 0.00 54 1008.2
20260509175600 18 119 6.4 8.0 0.00 0.00 0.00 53 1008.1
20260509175058 18 62 6.4 9.7 0.00 0.00 0.00 53 1008.5
20260509174554 18 71 3.2 9.7 0.00 0.00 0.00 56 1008.4
20260509174049 17 75 8.0 11.3 0.00 0.00 0.00 59 1008.5
20260509173544 17 63 6.4 11.3 0.00 0.00 0.00 56 1008.8
20260509173040 16 150 0.0 8.0 0.00 0.00 0.00 59 1008.9
20260509172538 16 74 6.4 11.3 0.00 0.00 0.00 63 1009.0
20260509172033 15 64 3.2 4.8 0.00 0.00 0.00 67 1009.3
20260509171529 15 89 6.4 8.0 0.00 0.00 0.00 66 1009.1
20260509171026 15 101 8.0 12.9 0.00 0.00 0.00 66 1009.0
20260509170521 16 38 6.4 8.0 0.00 0.00 0.00 64 1009.3
20260509170018 15 201 4.8 12.9 0.00 0.00 0.00 64 1009.2
20260509165517 15 8 6.4 9.7 0.00 0.00 0.00 64 1009.2
20260509165012 15 82 8.0 9.7 0.00 0.00 0.00 64 1009.1
20260509164508 15 57 6.4 14.5 0.00 0.00 0.00 66 1008.8
20260509164004 16 71 9.7 12.9 0.00 0.00 0.00 62 1009.0
20260509163502 17 68 6.4 12.9 0.00 0.00 0.00 61 1008.8
20260509163001 17 320 0.0 0.0 0.00 0.00 0.00 54 1008.9
20260509162500 17 185 0.0 0.0 0.00 0.00 0.00 52 1008.9
20260509161955 17 99 0.0 3.2 0.00 0.00 0.00 51 1008.9
20260509161452 17 9 0.0 3.2 0.00 0.00 0.00 51 1008.8
20260509160947 18 152 0.0 1.6 0.00 0.00 0.00 53 1008.6
20260509160443 18 111 0.0 1.6 0.00 0.00 0.00 52 1008.5
20260509155938 18 331 0.0 1.6 0.00 0.00 0.00 51 1008.4
20260509155435 18 154 1.6 4.8 0.00 0.00 0.00 51 1008.8
20260509154932 18 142 3.2 4.8 0.00 0.00 0.00 53 1008.4
20260509154428 18 149 1.6 4.8 0.00 0.00 0.00 53 1008.8
20260509153925 18 144 1.6 3.2 0.00 0.00 0.00 52 1008.5
20260509153422 18 139 3.2 4.8 0.00 0.00 0.00 52 1008.8
20260509152919 18 128 4.8 11.3 0.00 0.00 0.00 52 1008.8
20260509152415 18 186 1.6 4.8 0.00 0.00 0.00 52 1008.8
20260509151913 17 121 1.6 4.8 0.00 0.00 0.00 52 1008.4
20260509151408 17 124 3.2 3.2 0.00 0.00 0.00 56 1008.6
20260509150906 17 150 0.0 4.8 0.00 0.00 0.00 53 1008.5
20260509150404 17 140 0.0 4.8 0.00 0.00 0.00 54 1008.5
20260509145902 17 126 0.0 4.8 0.00 0.00 0.00 55 1008.8
20260509145401 17 117 0.0 8.0 0.00 0.00 0.00 54 1009.0
20260509144858 17 121 3.2 8.0 0.00 0.00 0.00 56 1009.0
20260509144354 17 155 4.8 9.7 0.00 0.00 0.00 56 1008.9
20260509143852 18 341 8.0 9.7 0.00 0.00 0.00 53 1008.8
20260509143350 17 119 4.8 8.0 0.00 0.00 0.00 56 1008.9
20260509142845 17 203 4.8 8.0 0.00 0.00 0.00 58 1008.8
20260509142342 18 153 4.8 11.3 0.00 0.00 0.00 56 1008.8
20260509141837 17 200 3.2 3.2 0.00 0.00 0.00 56 1008.8
20260509141334 18 127 3.2 12.9 0.00 0.00 0.00 55 1008.9
20260509140831 18 118 4.8 11.3 0.00 0.00 0.00 58 1009.0
20260509140328 17 168 3.2 8.0 0.00 0.00 0.00 56 1009.0
20260509135826 17 153 1.6 8.0 0.00 0.00 0.00 57 1009.3
20260509135323 16 133 1.6 9.7 0.00 0.00 0.00 59 1009.4
20260509134820 16 132 1.6 4.8 0.00 0.00 0.00 61 1009.5
20260509134318 16 231 3.2 8.0 0.00 0.00 0.00 59 1009.6
20260509133815 15 146 3.2 4.8 0.00 0.00 0.00 61 1009.5
20260509133311 15 152 1.6 11.3 0.00 0.00 0.00 64 1009.7
20260509132810 14 238 3.2 9.7 0.00 0.00 0.00 64 1009.8
20260509132308 14 144 3.2 8.0 0.00 0.00 0.00 65 1009.9
20260509131804 13 270 3.2 4.8 0.00 0.00 0.00 64 1009.9
20260509131302 13 135 3.2 4.8 0.00 0.00 0.00 65 1009.8
20260509130757 13 107 3.2 8.0 0.00 0.00 0.00 67 1010.1
20260509130253 13 133 0.0 3.2 0.00 0.00 0.00 69 1009.9
20260509125750 12 123 1.6 3.2 0.00 0.00 0.00 72 1010.0
20260509125247 12 119 1.6 4.8 0.00 0.00 0.00 69 1009.9
20260509124743 12 153 3.2 4.8 0.00 0.00 0.00 70 1010.0
20260509124240 12 174 0.0 3.2 0.00 0.00 0.00 70 1009.7
20260509123739 11 162 1.6 1.6 0.00 0.00 0.00 71 1009.7
20260509123236 11 125 0.0 3.2 0.00 0.00 0.00 71 1009.4
20260509122731 11 348 0.0 3.2 0.00 0.00 0.00 69 1009.6
20260509122228 11 267 3.2 4.8 0.00 0.00 0.00 69 1009.6
20260509121725 11 194 1.6 3.2 0.00 0.00 0.00 70 1009.7
20260509121222 11 222 1.6 4.8 0.00 0.00 0.00 70 1009.5
20260509120720 10 169 1.6 4.8 0.00 0.00 0.00 71 1009.7
20260509120218 10 174 0.0 1.6 0.00 0.00 0.00 71 1009.6
20260509115715 10 187 0.0 1.6 0.00 0.00 0.00 71 1009.6
20260509115212 10 182 1.6 1.6 0.00 0.00 0.00 71 1009.6
20260509114711 10 195 0.0 1.6 0.00 0.00 0.00 72 1009.8
20260509114209 10 302 3.2 4.8 0.00 0.00 0.00 71 1009.8
20260509113707 10 127 0.0 3.2 0.00 0.00 0.00 72 1009.8
20260509113204 10 186 0.0 3.2 0.00 0.00 0.00 73 1009.8
20260509112700 10 177 0.0 3.2 0.00 0.00 0.00 72 1009.6
20260509112158 10 341 3.2 3.2 0.00 0.00 0.00 71 1009.9
20260509111655 9 223 1.6 3.2 0.00 0.00 0.00 71 1009.8
20260509111151 9 210 1.6 3.2 0.00 0.00 0.00 74 1009.8
20260509110649 9 196 1.6 1.6 0.00 0.00 0.00 73 1009.8
20260509110145 9 184 0.0 0.0 0.00 0.00 0.00 74 1009.7
20260509105644 9 174 0.0 3.2 0.00 0.00 0.00 73 1009.9
20260509105141 9 348 0.0 3.2 0.00 0.00 0.00 73 1009.5
20260509104638 9 282 3.2 3.2 0.00 0.00 0.00 72 1009.6
20260509104134 9 276 6.4 8.0 0.00 0.00 0.00 72 1009.6
20260509103633 9 153 0.0 3.2 0.00 0.00 0.00 73 1009.7
20260509103131 9 190 1.6 4.8 0.00 0.00 0.00 72 1009.6
20260509102628 9 181 0.0 0.0 0.00 0.00 0.00 70 1009.5
20260509102125 10 186 0.0 3.2 0.00 0.00 0.00 70 1009.6
20260509101621 10 317 3.2 8.0 0.00 0.00 0.00 70 1009.7
20260509101118 9 208 0.0 1.6 0.00 0.00 0.00 70 1009.5
20260509100615 9 340 1.6 4.8 0.00 0.00 0.00 69 1009.5
20260509100112 10 343 4.8 4.8 0.00 0.00 0.00 68 1009.3
20260509095608 9 274 1.6 3.2 0.00 0.00 0.00 69 1009.7
20260509095106 10 222 4.8 4.8 0.00 0.00 0.00 69 1009.8
20260509094602 9 242 1.6 4.8 0.00 0.00 0.00 69 1009.8
20260509094059 9 114 0.0 1.6 0.00 0.00 0.00 70 1009.6
20260509093558 9 357 1.6 4.8 0.00 0.00 0.00 69 1009.5
20260509093055 9 189 0.0 0.0 0.00 0.00 0.00 70 1009.7
20260509092552 10 242 1.6 3.2 0.00 0.00 0.00 68 1009.6
20260509092051 10 192 0.0 3.2 0.00 0.00 0.00 68 1009.9
20260509091548 10 295 4.8 8.0 0.00 0.00 0.00 66 1010.0
20260509091044 10 338 3.2 4.8 0.00 0.00 0.00 68 1009.9
20260509090542 10 225 3.2 3.2 0.00 0.00 0.00 67 1009.9
20260509090040 10 274 4.8 8.0 0.00 0.00 0.00 67 1010.0
20260509085537 10 328 1.6 3.2 0.00 0.00 0.00 67 1009.8
20260509085032 10 184 0.0 3.2 0.00 0.00 0.00 67 1009.9
20260509084530 10 96 1.6 1.6 0.00 0.00 0.00 67 1009.9
20260509084027 10 222 0.0 0.0 0.00 0.00 0.00 66 1009.8
20260509083524 10 333 3.2 3.2 0.00 0.00 0.00 66 1010.0
20260509083020 10 202 0.0 1.6 0.00 0.00 0.00 67 1010.1
20260509082518 10 231 0.0 3.2 0.00 0.00 0.00 68 1010.2
20260509082015 10 190 0.0 3.2 0.00 0.00 0.00 66 1010.4
20260509081513 10 199 1.6 1.6 0.00 0.00 0.00 68 1010.0
20260509081009 10 223 3.2 4.8 0.00 0.00 0.00 66 1009.9
20260509080507 10 194 0.0 4.8 0.00 0.00 0.00 67 1010.2
20260509080005 10 333 4.8 4.8 0.00 0.00 0.00 67 1010.0
20260509075502 10 208 0.0 1.6 0.00 0.00 0.00 67 1009.9
20260509075000 10 144 0.0 3.2 0.00 0.00 0.00 65 1010.1
20260509074457 10 17 0.0 1.6 0.00 0.00 0.00 65 1010.1
20260509073953 10 327 0.0 3.2 0.00 0.00 0.00 66 1010.0
20260509073449 10 217 1.6 4.8 0.00 0.00 0.00 68 1010.1
20260509072946 10 138 0.0 0.0 0.00 0.00 0.00 66 1010.5
20260509072443 10 113 0.0 3.2 0.00 0.00 0.00 66 1010.1
20260509071940 10 178 0.0 3.2 0.00 0.00 0.00 66 1010.2
20260509071436 10 322 1.6 9.7 0.00 0.00 0.00 66 1010.5
20260509070934 10 168 0.0 4.8 0.00 0.00 0.00 67 1010.4
20260509070431 9 267 1.6 1.6 0.00 0.00 0.00 67 1010.5